FENGYUN 1C DEB

Satellite information

Favourite Embed

Satellite Type and Status

DEBRISIN ORBIT

Key statistics

Satellite FENGYUN 1C DEB at a glance.

Uptime

9668

Days in orbit

Revolutions

≈ 14.2

Per day

Orbit

SSO

Sun Synchronous Orbit

Inclination

98.6

Latest

Satellite identification and parameters

Extended collection of information and parameters for FENGYUN 1C DEB.

Object identification

Identified? True

Debris? True

Object name: FENGYUN 1C DEB

International designator: 1999-025EQU

Object number (NORAD): 38147

Object ID (CCSDS): 38147

Country: PEOPLES REPUBLIC OF CHINA (PRC)

Current information (Y/N): Y

RCS size: SMALL

Orbital parameters

Period: 101.178 minutes

Inclination: 98.5644 deg

SMA: 7192.553 km

Apoapsis: 851.846 km

Periapsis: 776.99 km

RAAN: 310.9004 deg

Eccentricy: 0.0052037

Argument of periapsis: 89.7806 deg

Mean anomaly: 270.9335 deg

Mean motion: 14.23239966 rev/day

Mean motion (dot): 0.00001979 rev/day2

B* drag term: 0.00088072026 1/REarth

Two-line elements (TLE)

Creation date: Oct. 22, 2025, 5:40 p.m.

Reference frame: TEME

Reference center: EARTH

Epoch: Oct. 22, 2025, 6:33 a.m. UTC

TLE line 0: 0 FENGYUN 1C DEB

TLE line 1: 1 38147U 99025EQU 25295.27313464 .00001979 00000-0 88072-3 0 9995

TLE line 2: 2 38147 98.5644 310.9004 0052037 89.7806 270.9335 14.23239966596557

Live tracking on map

Real-time ground track for satellite FENGYUN 1C DEB.

In-orbit conjunctions

A list of the most updated potential collisions computed for object FENGYUN 1C DEB.

Target Orbit TCA Probability of collision Miss distance Type
CZ-6A DEB LEO 2025-01-27 05:19:16 0.0001877693 143.0 (m) DEBRIS
COSMOS 1867 COOLANT LEO 2024-11-10 04:27:53 0.0009134942 381.0 (m) DEBRIS

Associated space launch

Chinese polar orbiting meteorological satellite

FENGYUN 1C DEB was lifted into orbit during the mission ‘Long March 4B | Feng Yun 1C’, on board a Long March 4B space rocket.

The launch took place on May 10, 1999, 1:33 a.m. from Launch Complex 7.

For more information about the launch, click the button.

Launch to space Long March 4B | Feng Yun 1C
Long March 4B | Feng Yun 1C

Agency: N/A

Status: Launch Successful

Launch date: May 10, 1999, 1:33 a.m. UTC

Rocket: Long March 4B

Launch pad: Launch Complex 7

Location: Taiyuan Satellite Launch Center, People's Republic of China

...

Latest news about this satellite

There are no fresh news available about this satellite. Check back as we update our databases every day.


Newsletter sign-up

Weekly statistics, charts and insights to help you stay on top of the space industry.